This is the latest recevied weather packets stored in our database for station/object MEGLR. If no packets are shown the sender has not sent any weather packets the latest 10 day(s).
| Time | Temp. | Humidity | Pressure | Rain* | Wind** | Luminosity | Snow |
|---|---|---|---|---|---|---|---|
| 1777859403 | 25.56° C | 27% | 0 hPa | - | - | - | - |
| 1777858803 | 26.11° C | 27% | 0 hPa | - | - | - | - |
| 1777858203 | 26.11° C | 26% | 0 hPa | - | - | - | - |
| 1777857602 | 26.11° C | 26% | 0 hPa | - | - | - | - |
| 1777857003 | 26.67° C | 24% | 0 hPa | - | - | - | - |
| 1777856403 | 27.22° C | 23% | 0 hPa | - | - | - | - |
| 1777855803 | 27.22° C | 23% | 0 hPa | - | - | - | - |
| 1777855203 | 27.22° C | 21% | 0 hPa | - | - | - | - |
| 1777854603 | 27.78° C | 20% | 0 hPa | - | - | - | - |
| 1777854003 | 27.78° C | 19% | 0 hPa | - | - | - | - |
| 1777853403 | 28.33° C | 19% | 0 hPa | - | - | - | - |
| 1777852803 | 28.33° C | 20% | 0 hPa | - | - | - | - |
| 1777852203 | 28.33° C | 21% | 0 hPa | - | - | - | - |
| 1777851603 | 28.33° C | 19% | 0 hPa | - | - | - | - |
| 1777851004 | 28.33° C | 17% | 0 hPa | - | - | - | - |
| 1777850402 | 28.33° C | 18% | 0 hPa | - | - | - | - |
| 1777849803 | 28.33° C | 20% | 0 hPa | - | - | - | - |
| 1777849203 | 28.33° C | 22% | 0 hPa | - | - | - | - |
| 1777848603 | 28.33° C | 22% | 0 hPa | - | - | - | - |
| 1777848003 | 28.33° C | 18% | 0 hPa | - | - | - | - |
| 1777847402 | 27.78° C | 18% | 0 hPa | - | - | - | - |
| 1777846803 | 27.78° C | 21% | 0 hPa | - | - | - | - |
| 1777846203 | 27.22° C | 22% | 0 hPa | - | - | - | - |
| 1777845603 | 27.22° C | 27% | 0 hPa | - | - | - | - |
| 1777845003 | 26.67° C | 18% | 0 hPa | - | - | - | - |
* Rain since midnight (hover to see other rain measurements)
** Current wind speed in m/s (hover to see current wind gust speed)